Location: Windsor
(43.2292°N, 89.3015°W)
Time: 22:50:46
(UTC+00:00)

Tiros 1 - Visible Passes

Search period start: 28 May 2022 00:00
Search period end: 07 June 2022 00:00
Orbit: 629 x 663 km, 48.4° (Epoch: 28 May)

Date Brightness Start Highest point End Pass type
(mag) Time Alt. Az. Time Alt. Az. Time Alt. Az.
28 May 7.0 06:36:45 86° NNW 06:36:45 86° NNW 06:41:25 10° ENE visible
28 May 8.2 08:14:48 10° WNW 08:19:16 45° N 08:23:46 10° ENE visible
29 May 8.7 05:22:59 23° E 05:22:59 23° E 05:24:54 10° ENE visible
29 May 7.6 07:00:34 31° W 07:02:36 57° NNW 07:07:12 10° ENE visible
29 May 8.2 08:40:50 10° WNW 08:45:18 44° N 08:49:48 10° ENE visible
30 May 7.2 05:46:39 69° ENE 05:46:39 69° ENE 05:50:45 10° ENE visible
30 May 8.1 07:24:12 10° W 07:28:35 45° N 07:33:05 10° ENE visible
30 May 7.9 09:06:43 10° WNW 09:11:18 54° NNE 09:15:55 10° E visible
31 May 8.7 04:32:24 22° E 04:32:24 22° E 04:34:13 10° ENE visible
31 May 7.6 06:09:55 31° W 06:11:55 59° NNW 06:16:32 10° ENE visible
31 May 8.2 07:50:10 10° WNW 07:54:37 44° N 07:59:06 10° ENE visible
31 May 7.3 09:32:30 10° WNW 09:37:11 79° NNE 09:41:54 10° ESE visible
01 Jun 6.9 04:54:48 66° SW 04:55:26 84° SSE 05:00:05 10° ENE visible
01 Jun 8.1 06:33:26 10° W 06:37:53 46° N 06:42:23 10° ENE visible
01 Jun 8.0 08:16:04 10° WNW 08:20:37 52° NNE 08:25:12 10° E visible
02 Jun 7.4 03:34:50 10° SSW 03:39:10 42° SE 03:43:31 10° ENE visible
02 Jun 7.5 05:16:41 10° W 05:21:15 62° NNW 05:25:52 10° ENE visible
02 Jun 8.2 06:59:29 10° WNW 07:03:55 43° N 07:08:23 10° ENE visible
02 Jun 7.3 08:41:51 10° WNW 08:46:31 75° NNE 08:51:12 10° ESE visible
03 Jun 8.4 02:19:56 10° S 02:23:08 19° SE 02:26:21 10° E visible
03 Jun 6.9 04:00:10 10° WSW 04:04:47 79° SSE 04:09:25 10° ENE visible
03 Jun 8.1 05:42:44 10° W 05:47:12 47° N 05:51:42 10° ENE visible
03 Jun 8.0 07:25:24 10° WNW 07:29:56 50° NNE 07:34:29 10° E visible
03 Jun 7.1 09:07:38 10° WNW 09:12:15 65° SSW 09:16:54 10° SE visible
04 Jun 7.5 02:44:16 10° SSW 02:48:32 38° SE 02:52:49 10° ENE visible
04 Jun 7.5 04:25:59 10° WSW 04:30:34 65° NNW 04:35:12 10° ENE visible
04 Jun 8.3 06:08:48 10° WNW 06:13:13 43° N 06:17:40 10° ENE visible
04 Jun 7.3 07:51:12 10° WNW 07:55:50 71° NNE 08:00:30 10° ESE visible
04 Jun 7.8 09:33:38 10° WNW 09:37:48 33° SW 09:42:00 10° SSE visible
05 Jun 7.0 03:09:31 10° SW 03:14:07 74° SSE 03:18:44 10° ENE visible
05 Jun 8.1 04:52:02 10° W 04:56:30 48° N 05:01:00 10° ENE visible
05 Jun 8.0 06:34:44 10° WNW 06:39:14 49° N 06:43:46 10° E visible
05 Jun 7.0 08:16:58 10° WNW 08:21:36 70° SSW 08:26:15 10° SE visible
06 Jun 7.4 03:35:18 10° WSW 03:39:54 68° NNW 03:44:31 10° ENE visible
06 Jun 8.3 05:18:06 10° WNW 05:22:32 43° N 05:26:58 10° ENE visible
06 Jun 7.4 07:00:32 10° WNW 07:05:10 68° NNE 07:09:48 10° ESE visible
06 Jun 7.6 08:42:55 10° WNW 08:47:10 36° SW 08:51:27 10° SSE visible
